[[{"header":{"parameterUnit":"m.s-1","parameterCategory":1,"la1":30.2991,"la2":30.254,"lo1":-89.0895,"lo2":-89.0444,"dy":0.0017,"dx":0.0017,"nx":28,"ny":28,"refTime":"2024-05-29T09:00:00:Z","depth":0,"parameterNumber":2,"parameterNumberName":"U-component_of_WINDS"},"data":[0,0,0,0,0,0,0,0,0,0,0,0,0,0,0,0,0,0,0,0,0,0,0,0,0,0,0,0,0,0,0,0,0,0,0,0,0,0,0,0,0,0,0,0,0,0,0,0,0,0,0,0,0,0,0,0,0,0,-2.9299,-2.9299,0,-2.9279,-2.9278,-2.9278,-2.9209,-2.9208,-2.9206,-2.9205,-2.9184,-2.9185,-2.9186,0,0,0,0,0,0,0,0,0,0,0,0,0,-2.9281,-2.9282,-2.9299,-2.9299,-2.9299,-2.9279,-2.9278,-2.9278,-2.9209,-2.9207,-2.9206,-2.9204,-2.9184,-2.9185,-2.9186,0,0,0,0,0,0,0,0,0,0,0,0,0,-2.9278,-2.9282,-2.9299,-2.9262,-2.9259,-2.9279,-2.9278,-2.9278,-2.921,-2.9207,-2.9205,-2.9203,-2.9183,-2.9185,-2.9186,-2.9241,0,0,-2.919,-2.9191,0,0,0,0,0,0,0,0,-2.9278,-2.9278,-2.9268,-2.9265,-2.9261,-2.9244,-2.9264,-2.9266,-2.921,-2.9228,-2.9204,-2.9202,-2.9206,-2.9205,-2.9207,-2.924,-2.9239,-2.919,-2.9191,-2.9192,-2.9192,0,0,0,0,0,0,0,-2.9278,-2.9279,-2.9291,-2.9268,-2.9263,-2.9247,-2.9244,-2.9264,-2.923,-2.9227,-2.9221,-2.922,-2.9204,-2.9205,-2.9206,-2.9239,-2.919,-2.9191,-2.9192,-2.9193,-2.9317,-2.9319,0,0,0,0,0,0,-2.9284,-2.928,-2.9292,-2.929,-2.9264,-2.9249,-2.9246,-2.9252,-2.923,-2.9224,-2.9222,-2.9217,-2.9204,-2.9204,-2.9205,-2.9267,-2.9192,-2.9193,-2.9194,-2.9315,-2.9318,-2.932,0,0,0,0,0,0,-2.9284,-2.9285,-2.9293,-2.9284,-2.9283,-2.9252,-2.9259,-2.9253,-2.9254,-2.9227,-2.922,-2.923,-2.9202,-2.9203,-2.9233,-2.9266,-2.9194,-2.9195,-2.9312,-2.9316,-2.9319,-2.9393,0,0,0,0,0,0,-2.9283,-2.9286,-2.9306,-2.9285,-2.9284,-2.932,-2.9261,-2.9254,-2.9257,-2.925,-2.9232,-2.9227,-2.9201,-2.9231,-2.9234,-2.9266,-2.9196,-2.9309,-2.9313,-2.9318,-2.9388,-2.9399,-2.9409,0,0,0,0,0,-2.9283,-2.9327,-2.9307,-2.9309,-2.9308,-2.9322,-2.9322,-2.929,-2.926,-2.928,-2.9262,-2.9228,-2.9262,-2.9235,-2.9237,-2.9271,-2.9306,-2.9312,-2.9317,-2.9383,-2.9397,-2.9409,0,0,0,0,0,0,-2.9353,-2.9324,-2.9301,-2.934,-2.9334,-2.9311,-2.9335,-2.9306,-2.9309,-2.9302,-2.9263,-2.926,-2.9296,-2.9286,-2.9256,-2.9323,-2.9279,-2.9285,-2.9328,-2.9341,-2.9351,-2.9352,-2.9197,0,0,0,0,0,-2.9373,-2.9386,-2.9361,-2.9397,-2.9396,-2.9366,-2.9371,-2.9348,-2.934,-2.9337,-2.9322,-2.9316,-2.9326,-2.9333,-2.934,-2.9387,-2.9382,-2.9411,-2.9422,-2.9431,-2.9436,-2.9461,-2.9474,-2.9339,-2.9339,-2.9339,0,0,-2.9414,-2.94,-2.9411,-2.9411,-2.9404,-2.9419,-2.9365,-2.9383,-2.9394,-2.934,-2.9367,-2.9356,-2.9348,-2.9386,-2.9403,-2.938,-2.9473,-2.9438,-2.9445,-2.9446,-2.9468,-2.9481,-2.9492,-2.9343,-2.9342,-2.9341,0,0,-2.9496,-2.9487,-2.9517,-2.9512,-2.9502,-2.9482,-2.949,-2.9471,-2.9462,-2.9488,-2.9448,-2.9462,-2.9479,-2.9475,-2.9475,-2.9559,-2.9527,-2.9562,-2.9617,-2.9641,-2.9652,-2.9661,-2.9691,-2.9702,-2.9568,-2.9568,-2.9569,0,-2.9548,-2.957,-2.9536,-2.9558,-2.9559,-2.9512,-2.9542,-2.9539,-2.9532,-2.9534,-2.9509,-2.953,-2.9521,-2.9558,-2.9579,-2.9581,-2.9588,-2.9563,-2.9653,-2.9662,-2.967,-2.9698,-2.9709,-2.9573,-2.9572,-2.9572,-2.9571,0,-2.9635,-2.965,-2.9676,-2.9671,-2.9676,-2.9702,-2.9672,-2.9682,-2.9659,-2.9642,-2.9671,-2.9658,-2.9663,-2.967,-2.9647,-2.9705,-2.9691,-2.966,-2.9614,-2.9688,-2.9713,-2.9724,-2.9579,-2.9577,-2.9576,-2.9575,0,0,-2.9758,-2.9736,-2.9745,-2.9743,-2.973,-2.9741,-2.9766,-2.9771,-2.9779,-2.9777,-2.9797,-2.9813,-2.9785,-2.9786,-2.9762,-2.9784,-2.9852,-2.9751,-2.975,-2.9769,-2.9914,-2.9937,-2.9949,-2.9832,-2.9833,-2.9835,-2.9915,0,-2.9836,-2.9876,-2.9847,-2.9892,-2.9907,-2.9863,-2.9885,-2.988,-2.9866,-2.9876,-2.9861,-2.9873,-2.9835,-2.9835,-2.9855,-2.9839,-2.988,-2.9833,-2.9849,-2.985,-2.9851,-2.9963,-2.9986,-3.0062,-2.9925,-2.9926,-2.9927,0,-2.9931,-2.9934,-2.998,-2.9965,-2.997,-2.999,-2.9992,-3.0003,-2.9997,-2.9986,-2.9987,-2.9959,-2.9983,-2.9939,-2.9972,-2.9941,-2.9946,-2.994,-2.9942,-2.9941,-2.9892,-2.9964,-3.0085,-3.0096,-2.9943,-2.9942,-2.9941,0,-3.0016,-3.0031,-3.0061,-3.006,-3.0044,-3.0059,-3.0053,-3.0045,-3.005,-3.0052,-3.0055,-3.0061,-3.0064,-3.0069,-3.0043,-3.0014,-3.0079,-3.0033,-3.007,-3.0071,-3.0084,-3.0084,-3.0207,-3.009,-3.009,-3.009,-3.009,0,-3.0105,-3.0135,-3.0099,-3.0117,-3.015,-3.0118,-3.0152,-3.0141,-3.0135,-3.0151,-3.0114,-3.013,-3.0096,-3.0109,-3.0089,-3.0119,-3.0121,-3.0112,-3.0106,-3.0115,-3.0116,-3.0116,-3.011,-3.0093,-3.0092,-3.0092,-3.0091,0,-3.0204,-3.0181,-3.0211,-3.0194,-3.019,-3.0215,-3.0201,-3.0217,-3.0202,-3.0223,-3.0226,-3.0201,-3.0215,-3.019,-3.02,-3.0187,-3.0229,-3.0216,-3.0231,-3.0227,-3.0264,-3.0261,-3.0392,-3.0407,-3.0282,-3.0283,-3.0284,0,-3.0261,-3.0284,-3.027,-3.0278,-3.0274,-3.0288,-3.0293,-3.0263,-3.027,-3.0266,-3.0284,-3.0294,-3.03,-3.0324,-3.0307,-3.0315,-3.0301,-3.0346,-3.0301,-3.031,-3.0301,-3.0299,-3.0301,-3.0355,-3.0356,-3.0358,-3.0359,0,-3.0366,-3.0354,-3.0363,-3.0369,-3.0376,-3.0379,-3.0379,-3.0388,-3.0357,-3.0367,-3.038,-3.0386,-3.0397,-3.0407,-3.0412,-3.0406,-3.0377,-3.0373,-3.0382,-3.039,-3.0398,-3.0393,-3.0255,-3.037,-3.0369,-3.0368,-3.0367,-3.0367,-3.0445,-3.0463,-3.0457,-3.0468,-3.0466,-3.0468,-3.0482,-3.047,-3.048,-3.0487,-3.0469,-3.0487,-3.0482,-3.0484,-3.0482,-3.0496,-3.0475,-3.0488,-3.0491,-3.0495,-3.0501,-3.0397,-3.0497,-3.0496,-3.0496,-3.0496,-3.0495,0,-3.0547,-3.0541,-3.0553,-3.0555,-3.0564,-3.0538,-3.0537,-3.0547,-3.0563,-3.0561,-3.0569,-3.0585,-3.0595,-3.0581,-3.0589,-3.0603,-3.059,-3.0606,-3.0604,-3.0603,-3.0518,-3.051,-3.0616,-3.0616,-3.0616,-3.0616,-3.0616,-3.0616,-3.0601,-3.0631,-3.0619,-3.0647,-3.0641,-3.0658,-3.066,-3.0662,-3.066,-3.068,-3.0689,-3.0679,-3.0672,-3.068,-3.0689,-3.0685,-3.0689,-3.071,-3.0701,-3.0621,-3.0609,-3.0598,-3.0589,-3.0711,-3.0711,-3.0784,-3.0785,-3.0786]},{"header":{"parameterUnit":"m.s-1","parameterCategory":1,"la1":30.2991,"la2":30.254,"lo1":-89.0895,"lo2":-89.0444,"dy":0.0017,"dx":0.0017,"nx":28,"ny":28,"refTime":"2024-05-29T09:00:00:Z","depth":0,"parameterNumber":3,"parameterNumberName":"V-component_of_WINDS"},"data":[0,0,0,0,0,0,0,0,0,0,0,0,0,0,0,0,0,0,0,0,0,0,0,0,0,0,0,0,0,0,0,0,0,0,0,0,0,0,0,0,0,0,0,0,0,0,0,0,0,0,0,0,0,0,0,0,0,0,1.4721,1.4721,0,1.4693,1.4693,1.4692,1.4697,1.4698,1.4698,1.4699,1.4669,1.4667,1.4666,0,0,0,0,0,0,0,0,0,0,0,0,0,1.4778,1.4777,1.4721,1.4721,1.472,1.4693,1.4693,1.4692,1.4697,1.4698,1.4698,1.4699,1.4669,1.4668,1.4666,0,0,0,0,0,0,0,0,0,0,0,0,0,1.4752,1.4777,1.4721,1.472,1.4719,1.4693,1.4693,1.4692,1.4697,1.4698,1.4699,1.4699,1.467,1.4668,1.4666,1.4639,0,0,1.466,1.4659,0,0,0,0,0,0,0,0,1.4753,1.475,1.472,1.472,1.4719,1.4699,1.4702,1.4674,1.4697,1.4705,1.4699,1.47,1.4678,1.4676,1.4669,1.4638,1.4636,1.466,1.4659,1.4658,1.4657,0,0,0,0,0,0,0,1.4755,1.4751,1.471,1.472,1.4719,1.472,1.4717,1.4697,1.4688,1.4705,1.4705,1.4702,1.4678,1.467,1.4668,1.4636,1.466,1.4658,1.4657,1.4656,1.4581,1.4581,0,0,0,0,0,0,1.4758,1.4753,1.4711,1.4709,1.4739,1.4718,1.4715,1.4705,1.4688,1.4686,1.4701,1.4702,1.4673,1.467,1.4667,1.4634,1.4658,1.4656,1.4655,1.4582,1.4581,1.458,0,0,0,0,0,0,1.4759,1.4754,1.4712,1.4731,1.4726,1.4717,1.4705,1.4704,1.4696,1.4685,1.4684,1.4695,1.4674,1.467,1.4646,1.4633,1.4655,1.4654,1.4583,1.4582,1.4581,1.4568,0,0,0,0,0,0,1.476,1.4754,1.4744,1.4731,1.4725,1.4692,1.4704,1.4703,1.4693,1.4694,1.4679,1.4677,1.4674,1.4649,1.4644,1.4631,1.4652,1.4584,1.4583,1.4581,1.457,1.4567,1.4564,0,0,0,0,0,1.4762,1.4742,1.4744,1.4739,1.4712,1.4691,1.4687,1.4684,1.4692,1.4682,1.4675,1.4678,1.4636,1.4646,1.4641,1.4627,1.4585,1.4583,1.4581,1.4571,1.4567,1.4564,0,0,0,0,0,0,1.4753,1.474,1.4742,1.4716,1.4705,1.4692,1.4679,1.4681,1.4666,1.4668,1.4664,1.4661,1.4637,1.463,1.4642,1.46,1.4611,1.4608,1.4605,1.4602,1.4599,1.4601,1.465,0,0,0,0,0,1.4748,1.4733,1.4722,1.47,1.4694,1.4688,1.4678,1.4677,1.4665,1.466,1.4651,1.4639,1.4623,1.4612,1.4597,1.4569,1.4566,1.4557,1.4554,1.4552,1.4549,1.4534,1.4529,1.4574,1.4574,1.4574,0,0,1.4738,1.4728,1.4719,1.4698,1.4689,1.4673,1.4683,1.4666,1.4653,1.4657,1.4634,1.4627,1.4613,1.4588,1.4576,1.4581,1.4536,1.455,1.4548,1.4546,1.4531,1.4527,1.4523,1.4573,1.4573,1.4573,0,0,1.471,1.4702,1.4682,1.4673,1.466,1.4656,1.4651,1.4638,1.4634,1.4611,1.4613,1.4599,1.4571,1.4561,1.4552,1.4521,1.4523,1.4517,1.4501,1.4486,1.4483,1.4479,1.4468,1.4463,1.4514,1.4514,1.4514,0,1.4698,1.4674,1.4672,1.4654,1.4644,1.4648,1.4628,1.462,1.4602,1.4595,1.4601,1.4567,1.4558,1.453,1.4522,1.4515,1.4509,1.4517,1.4483,1.448,1.4477,1.4466,1.4461,1.4513,1.4513,1.4513,1.4513,0,1.4659,1.4643,1.4629,1.4612,1.4601,1.4582,1.4577,1.4566,1.4566,1.4561,1.4538,1.4528,1.451,1.4503,1.4503,1.4475,1.4479,1.4484,1.4495,1.4472,1.4461,1.4457,1.4512,1.4512,1.4512,1.4513,0,0,1.4623,1.4606,1.4601,1.4593,1.4579,1.4566,1.4547,1.4531,1.4521,1.4509,1.4493,1.447,1.4475,1.4465,1.4464,1.4451,1.4426,1.4458,1.4458,1.4452,1.4394,1.4389,1.4384,1.4428,1.4427,1.4427,1.4395,0,1.4593,1.4561,1.4559,1.4529,1.4513,1.4517,1.4501,1.449,1.4485,1.4471,1.4465,1.4448,1.4457,1.4451,1.4439,1.4432,1.4414,1.4434,1.4412,1.4411,1.4414,1.4378,1.4373,1.4343,1.4391,1.439,1.4389,0,1.4553,1.454,1.4509,1.4497,1.449,1.4476,1.446,1.4447,1.4435,1.4432,1.4421,1.4422,1.4403,1.4415,1.4388,1.4402,1.4393,1.4389,1.4387,1.4384,1.4398,1.4373,1.4333,1.4328,1.4383,1.4383,1.4384,0,1.4529,1.4504,1.4481,1.4475,1.4461,1.445,1.4444,1.4433,1.4423,1.4409,1.4403,1.4387,1.4378,1.4366,1.4363,1.4373,1.4336,1.4348,1.4332,1.4332,1.4323,1.4323,1.428,1.4319,1.4319,1.4319,1.432,0,1.4494,1.4475,1.447,1.4456,1.4434,1.4433,1.4411,1.4405,1.4396,1.4381,1.4383,1.4369,1.4366,1.4351,1.4348,1.4326,1.4322,1.4319,1.4318,1.4318,1.4318,1.4311,1.4312,1.4318,1.4318,1.4319,1.4319,0,1.4463,1.4459,1.4435,1.4424,1.4421,1.4405,1.4395,1.4382,1.4378,1.4359,1.4354,1.4347,1.433,1.4326,1.4305,1.4303,1.4276,1.4278,1.428,1.428,1.4263,1.4265,1.4213,1.4206,1.4251,1.4251,1.425,0,1.444,1.4425,1.4413,1.4403,1.4396,1.4381,1.4371,1.4369,1.4358,1.4344,1.4332,1.4315,1.4301,1.4273,1.4266,1.4251,1.4251,1.4235,1.4249,1.4249,1.425,1.425,1.4248,1.4231,1.4231,1.423,1.423,0,1.4401,1.44,1.4385,1.4371,1.4359,1.4347,1.4336,1.4327,1.4324,1.4312,1.4295,1.4284,1.4263,1.4246,1.423,1.4223,1.4225,1.4226,1.4221,1.422,1.4221,1.4219,1.4271,1.4227,1.4227,1.4227,1.4227,1.4228,1.4372,1.4359,1.4348,1.4332,1.4323,1.4313,1.43,1.4294,1.428,1.4263,1.4263,1.4243,1.4232,1.4211,1.4203,1.4188,1.4193,1.4186,1.4184,1.4182,1.4181,1.4225,1.4185,1.4185,1.4186,1.4186,1.4186,0,1.4331,1.4325,1.431,1.4295,1.4282,1.4287,1.4275,1.4263,1.4247,1.4236,1.4223,1.4202,1.4186,1.4178,1.4162,1.4151,1.4152,1.4147,1.4147,1.4145,1.4177,1.4183,1.4146,1.4146,1.4146,1.4146,1.4146,1.4146,1.4309,1.4286,1.4284,1.4258,1.4251,1.4232,1.4225,1.4215,1.4207,1.4184,1.4171,1.4166,1.4157,1.414,1.4125,1.4123,1.4116,1.411,1.4109,1.4139,1.4143,1.4147,1.4151,1.4109,1.4109,1.4078,1.4077,1.4077]}]]